Time,TemperatureF,DewpointF,PressureIn,WindDirection,WindDirectionDegrees,WindSpeedMPH,WindSpeedGustMPH,Humidity,HourlyPrecipIn,Conditions,Clouds,dailyrainin,SoftwareType,DateUTC
2013-03-20 00:03:00,32.0,30.0,29.65,North,359,1.0,5.0,92,0.00,,,0.11,,2013-03-20 04:03:00,
2013-03-20 00:12:00,32.0,30.0,29.65,North,359,1.0,5.0,92,0.00,,,0.11,,2013-03-20 04:12:00,
2013-03-20 00:23:00,32.0,30.0,29.65,North,359,1.0,5.0,92,0.00,,,0.11,,2013-03-20 04:23:00,
2013-03-20 00:32:00,32.0,30.0,29.65,North,359,1.0,5.0,92,0.00,,,0.11,,2013-03-20 04:32:00,
2013-03-20 00:43:00,32.0,30.0,29.65,North,359,1.0,5.0,92,0.00,,,0.11,,2013-03-20 04:43:00,
2013-03-20 00:52:00,32.0,30.0,29.65,North,359,1.0,5.0,92,0.00,,,0.11,,2013-03-20 04:52:00,
2013-03-20 01:03:00,32.0,30.0,29.65,North,359,1.0,5.0,92,0.00,,,0.11,,2013-03-20 05:03:00,
2013-03-20 01:13:00,32.0,30.0,29.65,North,359,1.0,5.0,92,0.00,,,0.11,,2013-03-20 05:13:00,
2013-03-20 01:23:00,32.0,30.0,29.65,North,359,1.0,5.0,92,0.00,,,0.11,,2013-03-20 05:23:00,
2013-03-20 01:32:00,32.0,30.0,29.65,North,359,1.0,5.0,92,0.00,,,0.11,,2013-03-20 05:32:00,
2013-03-20 01:42:00,32.0,30.0,29.65,North,359,1.0,5.0,92,0.00,,,0.11,,2013-03-20 05:42:00,
2013-03-20 01:52:00,32.0,30.0,29.65,North,359,1.0,5.0,92,0.00,,,0.11,,2013-03-20 05:52:00,
2013-03-20 02:03:00,32.0,30.0,29.65,North,359,1.0,5.0,92,0.00,,,0.11,,2013-03-20 06:03:00,
2013-03-20 02:13:00,32.0,30.0,29.65,North,359,1.0,5.0,92,0.00,,,0.11,,2013-03-20 06:13:00,
2013-03-20 02:22:00,32.0,30.0,29.65,North,359,1.0,5.0,92,0.00,,,0.11,,2013-03-20 06:22:00,
2013-03-20 02:32:00,32.0,30.0,29.65,North,359,1.0,5.0,92,0.00,,,0.11,,2013-03-20 06:32:00,
2013-03-20 02:42:00,32.0,30.0,29.65,North,359,1.0,5.0,92,0.00,,,0.11,,2013-03-20 06:42:00,
2013-03-20 02:53:00,32.0,30.0,29.65,North,359,1.0,5.0,92,0.00,,,0.11,,2013-03-20 06:53:00,
2013-03-20 03:02:00,32.0,30.0,29.65,North,359,1.0,5.0,92,0.00,,,0.11,,2013-03-20 07:02:00,
2013-03-20 03:12:00,32.0,30.0,29.65,North,359,1.0,5.0,92,0.00,,,0.11,,2013-03-20 07:12:00,
2013-03-20 03:22:00,32.0,30.0,29.65,North,359,1.0,5.0,92,0.00,,,0.11,,2013-03-20 07:22:00,
2013-03-20 03:32:00,32.0,30.0,29.65,North,359,1.0,5.0,92,0.00,,,0.11,,2013-03-20 07:32:00,
2013-03-20 03:42:00,32.0,30.0,29.65,North,359,1.0,5.0,92,0.00,,,0.11,,2013-03-20 07:42:00,
2013-03-20 03:52:00,32.0,30.0,29.65,North,359,1.0,5.0,92,0.00,,,0.11,,2013-03-20 07:52:00,
2013-03-20 04:02:00,32.0,30.0,29.65,North,359,1.0,5.0,92,0.00,,,0.11,,2013-03-20 08:02:00,
2013-03-20 04:12:00,32.0,30.0,29.65,North,359,1.0,5.0,92,0.00,,,0.11,,2013-03-20 08:12:00,
2013-03-20 04:22:00,32.0,30.0,29.65,North,359,1.0,5.0,92,0.00,,,0.11,,2013-03-20 08:22:00,
2013-03-20 04:32:00,25.0,23.0,29.69,West,260,0.0,2.0,91,0.01,,,0.12,,2013-03-20 08:32:00,
2013-03-20 04:42:00,25.0,23.0,29.69,West,260,0.0,2.0,91,0.01,,,0.12,,2013-03-20 08:42:00,
2013-03-20 04:52:00,25.0,23.0,29.69,West,260,0.0,2.0,91,0.01,,,0.12,,2013-03-20 08:52:00,
2013-03-20 05:02:00,25.0,23.0,29.69,West,260,0.0,2.0,91,0.01,,,0.12,,2013-03-20 09:02:00,
2013-03-20 05:12:00,25.0,23.0,29.69,West,260,0.0,2.0,91,0.01,,,0.12,,2013-03-20 09:12:00,
2013-03-20 05:22:00,25.0,23.0,29.69,South,189,1.0,4.0,91,0.01,,,0.12,,2013-03-20 09:22:00,
2013-03-20 05:33:00,26.0,24.0,29.69,WSW,246,0.0,3.0,91,0.00,,,0.12,,2013-03-20 09:33:00,
2013-03-20 05:43:00,26.0,24.0,29.69,WSW,246,0.0,3.0,91,0.00,,,0.12,,2013-03-20 09:43:00,
2013-03-20 05:53:00,26.0,24.0,29.69,WSW,246,0.0,3.0,91,0.00,,,0.12,,2013-03-20 09:53:00,
2013-03-20 06:03:00,26.0,23.0,29.70,WSW,241,1.0,5.0,90,0.00,,,0.12,,2013-03-20 10:03:00,
2013-03-20 06:13:00,26.0,23.0,29.70,WSW,241,1.0,5.0,90,0.00,,,0.12,,2013-03-20 10:13:00,
2013-03-20 06:23:00,26.0,23.0,29.70,SW,231,1.0,5.0,90,0.00,,,0.12,,2013-03-20 10:23:00,
2013-03-20 06:33:00,26.0,23.0,29.70,WSW,237,2.0,6.0,88,0.00,,,0.12,,2013-03-20 10:33:00,
2013-03-20 06:43:00,26.0,23.0,29.70,WSW,237,2.0,6.0,88,0.00,,,0.12,,2013-03-20 10:43:00,
2013-03-20 06:52:00,26.0,23.0,29.70,WSW,237,2.0,6.0,88,0.00,,,0.12,,2013-03-20 10:52:00,
2013-03-20 07:03:00,26.0,23.0,29.70,WSW,249,1.0,4.0,87,0.00,,,0.12,,2013-03-20 11:03:00,
2013-03-20 07:12:00,26.0,23.0,29.70,WSW,249,1.0,4.0,87,0.00,,,0.12,,2013-03-20 11:12:00,
2013-03-20 07:22:00,26.0,23.0,29.70,WSW,249,1.0,4.0,87,0.00,,,0.12,,2013-03-20 11:22:00,
2013-03-20 07:32:00,26.0,22.0,29.71,WSW,237,2.0,6.0,86,0.00,,,0.12,,2013-03-20 11:32:00,
2013-03-20 07:42:00,26.0,22.0,29.71,WSW,237,2.0,6.0,86,0.00,,,0.12,,2013-03-20 11:42:00,
2013-03-20 07:52:00,26.0,22.0,29.71,WSW,237,2.0,6.0,86,0.00,,,0.12,,2013-03-20 11:52:00,
2013-03-20 08:02:00,26.0,22.0,29.71,WSW,237,2.0,6.0,86,0.00,,,0.12,,2013-03-20 12:02:00,
2013-03-20 08:12:00,26.0,22.0,29.71,WSW,237,2.0,6.0,86,0.00,,,0.12,,2013-03-20 12:12:00,
2013-03-20 08:22:00,26.0,22.0,29.72,West,267,1.0,4.0,86,0.00,,,0.12,,2013-03-20 12:22:00,
2013-03-20 08:33:00,26.0,22.0,29.72,WSW,256,1.0,5.0,86,0.00,,,0.12,,2013-03-20 12:33:00,
2013-03-20 08:43:00,26.0,22.0,29.72,WSW,256,1.0,5.0,86,0.00,,,0.12,,2013-03-20 12:43:00,
2013-03-20 08:52:00,26.0,22.0,29.72,WSW,256,1.0,5.0,86,0.00,,,0.12,,2013-03-20 12:52:00,
2013-03-20 09:03:00,26.0,22.0,29.72,WSW,256,1.0,5.0,86,0.00,,,0.12,,2013-03-20 13:03:00,
2013-03-20 09:12:00,26.0,22.0,29.72,WSW,256,1.0,5.0,86,0.00,,,0.12,,2013-03-20 13:12:00,
2013-03-20 09:22:00,28.0,24.0,29.71,West,270,3.0,9.0,83,0.00,,,0.12,,2013-03-20 13:22:00,
2013-03-20 09:32:00,30.0,25.0,29.71,West,271,3.0,9.0,82,0.00,,,0.12,,2013-03-20 13:32:00,
2013-03-20 09:43:00,30.0,25.0,29.71,West,271,3.0,9.0,82,0.00,,,0.12,,2013-03-20 13:43:00,
2013-03-20 09:53:00,30.0,25.0,29.71,West,271,3.0,9.0,82,0.00,,,0.12,,2013-03-20 13:53:00,
2013-03-20 10:03:00,31.0,25.0,29.71,West,272,5.0,10.0,79,0.03,,,0.15,,2013-03-20 14:03:00,
2013-03-20 10:12:00,31.0,25.0,29.71,West,272,5.0,10.0,79,0.03,,,0.15,,2013-03-20 14:12:00,
2013-03-20 10:23:00,31.0,25.0,29.71,West,272,5.0,10.0,79,0.03,,,0.15,,2013-03-20 14:23:00,
2013-03-20 10:34:00,32.0,26.0,29.71,West,276,5.0,18.0,77,0.08,,,0.20,,2013-03-20 14:34:00,
2013-03-20 10:42:00,32.0,26.0,29.71,West,276,5.0,18.0,77,0.08,,,0.20,,2013-03-20 14:42:00,
2013-03-20 10:52:00,32.0,26.0,29.71,West,276,5.0,18.0,77,0.08,,,0.20,,2013-03-20 14:52:00,
2013-03-20 11:03:00,32.0,26.0,29.71,West,276,5.0,18.0,77,0.08,,,0.20,,2013-03-20 15:03:00,
2013-03-20 11:12:00,32.0,25.0,29.72,West,270,5.0,10.0,76,0.12,,,0.29,,2013-03-20 15:12:00,
2013-03-20 11:22:00,32.0,25.0,29.72,West,270,5.0,10.0,76,0.12,,,0.29,,2013-03-20 15:22:00,
2013-03-20 11:33:00,33.0,27.0,29.72,WNW,285,4.0,11.0,77,0.11,,,0.30,,2013-03-20 15:33:00,
2013-03-20 11:43:00,33.0,27.0,29.72,WNW,285,4.0,11.0,77,0.11,,,0.30,,2013-03-20 15:43:00,
2013-03-20 11:53:00,33.0,26.0,29.72,West,271,7.0,19.0,74,0.10,,,0.33,,2013-03-20 15:53:00,
2013-03-20 12:03:00,33.0,26.0,29.72,West,271,7.0,19.0,74,0.10,,,0.33,,2013-03-20 16:03:00,
2013-03-20 12:13:00,33.0,26.0,29.72,West,271,7.0,19.0,74,0.10,,,0.33,,2013-03-20 16:13:00,
2013-03-20 12:23:00,33.0,26.0,29.72,West,271,7.0,19.0,74,0.10,,,0.33,,2013-03-20 16:23:00,
2013-03-20 12:33:00,34.0,26.0,29.72,West,276,6.0,19.0,71,0.06,,,0.38,,2013-03-20 16:33:00,
2013-03-20 12:43:00,34.0,26.0,29.72,West,276,6.0,19.0,71,0.06,,,0.38,,2013-03-20 16:43:00,
2013-03-20 12:53:00,34.0,26.0,29.72,West,276,6.0,19.0,71,0.06,,,0.38,,2013-03-20 16:53:00,
2013-03-20 13:03:00,34.0,25.0,29.72,West,259,7.0,14.0,70,0.08,,,0.42,,2013-03-20 17:03:00,
2013-03-20 13:12:00,34.0,25.0,29.72,West,259,7.0,14.0,70,0.08,,,0.42,,2013-03-20 17:12:00,
2013-03-20 13:22:00,34.0,25.0,29.72,West,259,7.0,14.0,70,0.08,,,0.42,,2013-03-20 17:22:00,
2013-03-20 13:32:00,34.0,23.0,29.72,West,263,9.0,21.0,63,0.09,,,0.45,,2013-03-20 17:32:00,
2013-03-20 13:42:00,34.0,23.0,29.72,West,263,9.0,21.0,63,0.09,,,0.45,,2013-03-20 17:42:00,
2013-03-20 13:52:00,34.0,23.0,29.72,West,272,7.0,15.0,65,0.09,,,0.46,,2013-03-20 17:52:00,
2013-03-20 14:02:00,34.0,23.0,29.72,West,267,6.0,16.0,64,0.06,,,0.45,,2013-03-20 18:02:00,
2013-03-20 14:12:00,34.0,23.0,29.72,West,267,6.0,16.0,64,0.06,,,0.45,,2013-03-20 18:12:00,
2013-03-20 14:22:00,34.0,23.0,29.72,West,267,6.0,16.0,64,0.06,,,0.45,,2013-03-20 18:22:00,
2013-03-20 14:33:00,36.0,24.0,29.71,West,269,8.0,18.0,61,0.03,,,0.45,,2013-03-20 18:33:00,
2013-03-20 14:43:00,36.0,24.0,29.71,West,269,8.0,18.0,61,0.03,,,0.45,,2013-03-20 18:43:00,
2013-03-20 14:52:00,36.0,24.0,29.71,West,269,8.0,18.0,61,0.03,,,0.45,,2013-03-20 18:52:00,
2013-03-20 15:02:00,35.0,23.0,29.71,West,268,8.0,22.0,62,0.03,,,0.46,,2013-03-20 19:02:00,
2013-03-20 15:12:00,35.0,23.0,29.71,West,268,8.0,22.0,62,0.03,,,0.46,,2013-03-20 19:12:00,
2013-03-20 15:22:00,35.0,24.0,29.71,West,271,7.0,14.0,64,0.04,,,0.47,,2013-03-20 19:22:00,
2013-03-20 15:32:00,35.0,22.0,29.71,West,261,7.0,17.0,59,0.04,,,0.48,,2013-03-20 19:32:00,
2013-03-20 15:42:00,35.0,22.0,29.71,West,261,7.0,17.0,59,0.04,,,0.48,,2013-03-20 19:42:00,
2013-03-20 15:52:00,35.0,22.0,29.71,West,261,7.0,17.0,59,0.04,,,0.48,,2013-03-20 19:52:00,
2013-03-20 16:02:00,35.0,22.0,29.71,West,261,7.0,17.0,59,0.04,,,0.48,,2013-03-20 20:02:00,
2013-03-20 16:13:00,35.0,22.0,29.71,West,261,7.0,17.0,59,0.04,,,0.48,,2013-03-20 20:13:00,
2013-03-20 16:22:00,37.0,24.0,29.71,West,267,6.0,12.0,58,0.03,,,0.49,,2013-03-20 20:22:00,
2013-03-20 16:32:00,37.0,24.0,29.71,West,267,6.0,12.0,58,0.03,,,0.49,,2013-03-20 20:32:00,
2013-03-20 16:43:00,37.0,24.0,29.71,West,267,6.0,12.0,58,0.03,,,0.49,,2013-03-20 20:43:00,
2013-03-20 16:53:00,37.0,24.0,29.71,West,267,6.0,12.0,58,0.03,,,0.49,,2013-03-20 20:53:00,
2013-03-20 17:02:00,37.0,23.0,29.71,West,272,7.0,21.0,56,0.05,,,0.52,,2013-03-20 21:02:00,
2013-03-20 17:12:00,37.0,23.0,29.71,West,272,7.0,21.0,56,0.05,,,0.52,,2013-03-20 21:12:00,
2013-03-20 17:23:00,37.0,23.0,29.71,West,272,7.0,21.0,56,0.05,,,0.52,,2013-03-20 21:23:00,
2013-03-20 17:33:00,36.0,21.0,29.71,West,273,8.0,18.0,55,0.03,,,0.52,,2013-03-20 21:33:00,
2013-03-20 17:42:00,36.0,21.0,29.71,West,273,8.0,18.0,55,0.03,,,0.52,,2013-03-20 21:42:00,
2013-03-20 17:52:00,37.0,23.0,29.71,West,274,6.0,18.0,57,0.02,,,0.51,,2013-03-20 21:52:00,
2013-03-20 18:03:00,36.0,22.0,29.72,West,270,5.0,13.0,56,0.02,,,0.51,,2013-03-20 22:03:00,
2013-03-20 18:13:00,36.0,22.0,29.72,West,270,5.0,13.0,56,0.02,,,0.51,,2013-03-20 22:13:00,
2013-03-20 18:23:00,37.0,22.0,29.72,West,272,4.0,11.0,55,0.01,,,0.51,,2013-03-20 22:23:00,
2013-03-20 18:33:00,36.0,21.0,29.73,West,270,5.0,14.0,55,0.01,,,0.52,,2013-03-20 22:33:00,
2013-03-20 18:42:00,36.0,21.0,29.73,West,270,5.0,14.0,55,0.01,,,0.52,,2013-03-20 22:42:00,
2013-03-20 18:53:00,36.0,21.0,29.73,West,270,5.0,14.0,55,0.01,,,0.52,,2013-03-20 22:53:00,
2013-03-20 19:02:00,34.0,20.0,29.74,West,267,4.0,11.0,57,0.01,,,0.51,,2013-03-20 23:02:00,
2013-03-20 19:12:00,34.0,20.0,29.74,West,267,4.0,11.0,57,0.01,,,0.51,,2013-03-20 23:12:00,
2013-03-20 19:22:00,34.0,20.0,29.74,West,267,4.0,11.0,57,0.01,,,0.51,,2013-03-20 23:22:00,
2013-03-20 19:32:00,33.0,21.0,29.75,WSW,248,2.0,8.0,60,0.00,,,0.51,,2013-03-20 23:32:00,
2013-03-20 19:42:00,33.0,21.0,29.75,WSW,248,2.0,8.0,60,0.00,,,0.51,,2013-03-20 23:42:00,
2013-03-20 19:52:00,33.0,21.0,29.75,WSW,248,2.0,8.0,60,0.00,,,0.51,,2013-03-20 23:52:00,
2013-03-20 20:03:00,31.0,23.0,29.76,North,0,0.0,0.0,71,0.00,,,0.51,,2013-03-21 00:03:00,
2013-03-20 20:13:00,31.0,23.0,29.76,North,0,0.0,0.0,71,0.00,,,0.51,,2013-03-21 00:13:00,
2013-03-20 20:23:00,31.0,23.0,29.76,North,0,0.0,0.0,71,0.00,,,0.51,,2013-03-21 00:23:00,
2013-03-20 20:33:00,29.0,23.0,29.77,North,0,0.0,0.0,77,0.00,,,0.51,,2013-03-21 00:33:00,
2013-03-20 20:42:00,29.0,23.0,29.77,North,0,0.0,0.0,77,0.00,,,0.51,,2013-03-21 00:42:00,
2013-03-20 20:52:00,28.0,22.0,29.77,SW,224,0.0,3.0,78,0.00,,,0.51,,2013-03-21 00:52:00,
2013-03-20 21:02:00,28.0,22.0,29.77,SW,224,0.0,3.0,78,0.00,,,0.51,,2013-03-21 01:02:00,
2013-03-20 21:12:00,28.0,22.0,29.77,SW,224,0.0,3.0,78,0.00,,,0.51,,2013-03-21 01:12:00,
2013-03-20 21:22:00,28.0,22.0,29.77,SW,224,0.0,3.0,78,0.00,,,0.51,,2013-03-21 01:22:00,
2013-03-20 21:33:00,26.0,22.0,29.77,SW,224,0.0,3.0,83,0.00,,,0.51,,2013-03-21 01:33:00,
2013-03-20 21:40:00,26.0,22.0,29.78,SW,225,1.0,4.0,84,0.00,,,0.51,,2013-03-21 01:40:00,
2013-03-20 21:42:00,26.0,22.0,29.77,SW,224,0.0,3.0,83,0.00,,,0.51,,2013-03-21 01:42:00,
2013-03-20 21:53:00,26.0,22.0,29.77,SW,224,0.0,3.0,83,0.00,,,0.51,,2013-03-21 01:53:00,
2013-03-20 22:03:00,26.0,22.0,29.78,SW,225,1.0,4.0,84,0.00,,,0.51,,2013-03-21 02:03:00,
2013-03-20 22:13:00,26.0,22.0,29.78,SW,225,1.0,4.0,84,0.00,,,0.51,,2013-03-21 02:13:00,
2013-03-20 22:22:00,26.0,22.0,29.78,SW,225,1.0,4.0,84,0.00,,,0.51,,2013-03-21 02:22:00,
2013-03-20 22:33:00,26.0,22.0,29.78,SW,225,1.0,4.0,84,0.00,,,0.51,,2013-03-21 02:33:00,
2013-03-20 23:02:00,25.0,21.0,29.80,WSW,238,0.0,3.0,83,0.00,,,0.51,,2013-03-21 03:02:00,
2013-03-20 23:12:00,25.0,21.0,29.80,WSW,238,0.0,3.0,83,0.00,,,0.51,,2013-03-21 03:12:00,
2013-03-20 23:22:00,25.0,21.0,29.79,SW,229,1.0,4.0,84,0.00,,,0.51,,2013-03-21 03:22:00,
2013-03-20 23:33:00,24.0,20.0,29.79,SW,233,0.0,4.0,84,0.00,,,0.51,,2013-03-21 03:33:00,
2013-03-20 23:43:00,24.0,20.0,29.79,SW,233,0.0,4.0,84,0.00,,,0.51,,2013-03-21 03:43:00,
2013-03-20 23:53:00,24.0,20.0,29.79,SW,233,0.0,4.0,84,0.00,,,0.51,,2013-03-21 03:53:00,